Location: Lac de la Montagne noire
(46.1952°N, 74.2701°W)
Time: 18:18:16
(UTC-04:00)

Envisat - Pass Details

Date: 19 March 2019
Orbit: 764 x 766 km, 98.2° (Epoch: 23 April)

Event Time Altitude Azimuth Distance (km) Brightness Sun altitude
Rises 19:49:25 0° 177° (S) 3,219 6.1 -8.0°
Reaches altitude 10° 19:51:46 10° 182° (S) 2,297 5.4 -8.4°
Maximum altitude 19:56:44 56° 260° (W) 914 3.8 -9.2°
Drops below altitude 10° 20:01:44 10° 338° (NNW) 2,314 5.9 -10.1°
Sets 20:04:07 0° 343° (NNW) 3,244 6.6 -10.5°
